User: anonymous   Login
Location: ???? ??
(36.0534°N, 43.5630°E)
Time: 04:33:47
(UTC+00:00)
Language:

Cosmos 2366 rocket - Orbit

View from above orbital plane
View from above orbital plane
View from above satellite
View from above satellite

Ground track
Ground track

The orbit data is extracted from the following two-line orbital elements,

1 25893U 99045B   19322.84166689 -.00000012 +00000-0 -28322-4 0  9995
2 25893 082.9262 085.9835 0029541 139.1533 329.7366 13.76521658016368
Epoch (UTC): 18 November 2019 20:12:00
Eccentricity: 0.0029541
inclination: 82.9262°
perigee height: 954 km
apogee height: 998 km
right ascension of ascending node: 85.9835°
argument of perigee: 139.1533°
revolutions per day: 13.76521658
mean anomaly at epoch: 329.7366°
orbit number at epoch: 1636

The dashed part of the orbit path shows where the satellite is in the earth's shadow,  

DLR